FW0372 Weather Reports


Display with metric or nautical units.
time (UTC)temp
F
wind
direction
speed
MPH
gust
MPH
rain 1hr
in
rain 24hr
in
rain mn
in
humidity
%
barometer
mb
20210619112419 65 128 0.0 0.0 0.00 0.00 0.00 76 1011.3
20210619111903 65 128 0.0 0.0 0.00 0.00 0.00 76 1011.3
20210619110917 65 128 0.0 0.0 0.00 0.00 0.00 76 1011.2
20210619105921 65 128 0.0 0.0 0.00 0.00 0.00 76 1011.1
20210619104913 65 128 0.0 1.0 0.00 0.00 0.00 76 1010.9
20210619103915 65 128 0.0 0.0 0.00 0.00 0.00 76 1010.9
20210619102927 65 128 0.0 0.0 0.00 0.00 0.00 76 1010.8
20210619102422 65 128 0.0 0.0 0.00 0.00 0.00 76 1010.6
20210619101906 65 128 0.0 0.0 0.00 0.00 0.00 76 1010.6
20210619100916 65 128 0.0 0.0 0.00 0.00 0.00 76 1010.5
20210619095923 65 128 0.0 0.0 0.00 0.00 0.00 76 1010.4
20210619095404 65 128 0.0 0.0 0.00 0.00 0.00 76 1010.5
20210619094410 66 128 0.0 0.0 0.00 0.00 0.00 76 1010.4
20210619093418 66 128 0.0 0.0 0.00 0.00 0.00 76 1010.5
20210619092905 66 128 0.0 0.0 0.00 0.00 0.00 76 1010.6
20210619091909 66 128 0.0 0.0 0.00 0.00 0.00 76 1010.5
20210619090915 66 128 0.0 0.0 0.00 0.00 0.00 76 1010.6
20210619085916 66 128 0.0 0.0 0.00 0.00 0.00 76 1010.7
20210619084925 66 128 0.0 0.0 0.00 0.00 0.00 75 1010.6
20210619083905 66 128 0.0 0.0 0.00 0.00 0.00 75 1010.6
20210619082918 66 128 0.0 0.0 0.00 0.00 0.00 75 1010.8
20210619081923 67 128 0.0 0.0 0.00 0.00 0.00 75 1010.7
20210619080906 67 128 0.0 0.0 0.00 0.00 0.00 75 1010.8
20210619075912 67 128 0.0 0.0 0.00 0.00 0.00 75 1010.7
20210619074917 67 128 0.0 0.0 0.00 0.00 0.00 75 1011.0
20210619073920 67 128 0.0 0.0 0.00 0.00 0.00 74 1011.1
20210619072927 67 128 0.0 0.0 0.00 0.00 0.00 74 1011.2
20210619072403 67 128 0.0 0.0 0.00 0.00 0.00 74 1011.2
20210619071416 67 128 0.0 0.0 0.00 0.00 0.00 73 1011.3
20210619070421 68 128 0.0 0.0 0.00 0.00 0.00 72 1011.4
20210619065420 68 128 0.0 0.0 0.00 0.00 0.00 71 1011.5
20210619064421 68 128 0.0 0.0 0.00 0.00 0.00 69 1011.7
20210619063905 68 128 0.0 0.0 0.00 0.00 0.00 69 1011.7
20210619062920 68 128 0.0 0.0 0.00 0.00 0.00 68 1012.0
20210619061908 69 128 0.0 0.0 0.00 0.00 0.00 68 1012.0
20210619060913 69 128 0.0 1.0 0.00 0.00 0.00 67 1012.2
20210619055910 69 128 0.0 1.0 0.00 0.00 0.00 67 1012.3
20210619054914 69 128 0.0 0.0 0.00 0.00 0.00 66 1012.3
20210619053917 69 128 0.0 0.0 0.00 0.00 0.00 66 1012.5
20210619052921 70 128 0.0 1.0 0.00 0.00 0.00 66 1012.4
20210619051414 70 128 0.0 1.0 0.00 0.00 0.00 66 1012.7
20210619050506 70 128 0.0 0.0 0.00 0.00 0.00 66 1012.6
20210619045954 71 128 0.0 0.0 0.00 0.00 0.00 66 1012.8
20210619045423 71 128 0.0 0.0 0.00 0.00 0.00 65 1012.7
20210619044415 71 128 0.0 0.0 0.00 0.00 0.00 65 1012.7
20210619043414 71 128 0.0 0.0 0.00 0.00 0.00 66 1012.8
20210619042916 72 128 0.0 0.0 0.00 0.00 0.00 66 1012.7
20210619041920 72 128 0.0 0.0 0.00 0.00 0.00 67 1012.6
20210619040928 73 128 0.0 0.0 0.00 0.00 0.00 67 1012.7
20210619035910 73 128 0.0 1.0 0.00 0.00 0.00 67 1012.8
20210619034911 73 128 0.0 1.0 0.00 0.00 0.00 67 1012.7
20210619033919 74 128 0.0 1.0 0.00 0.00 0.00 67 1012.6
20210619032922 74 128 0.0 1.0 0.00 0.00 0.00 66 1012.7
20210619032407 74 128 0.0 1.0 0.00 0.00 0.00 66 1012.7
20210619031411 74 128 0.0 1.0 0.00 0.00 0.00 66 1012.5
20210619030414 75 128 0.0 1.0 0.00 0.00 0.00 65 1012.5
20210619025422 75 128 0.0 0.0 0.00 0.00 0.00 64 1012.3
20210619024908 76 128 0.0 0.0 0.00 0.00 0.00 64 1012.3
20210619023907 76 128 0.0 0.0 0.00 0.00 0.00 63 1012.3
20210619022912 76 128 0.0 1.0 0.00 0.00 0.00 62 1012.1
20210619021930 77 128 0.0 1.0 0.00 0.00 0.00 61 1012.2
20210619021407 77 128 0.0 1.0 0.00 0.00 0.00 61 1012.2
20210619020415 77 128 0.0 1.0 0.00 0.00 0.00 62 1012.1
20210619015424 78 128 0.0 1.0 0.00 0.00 0.00 60 1012.1
20210619014907 78 128 0.0 2.0 0.00 0.00 0.00 60 1012.1
20210619013916 79 128 0.0 1.0 0.00 0.00 0.00 59 1012.2
20210619013413 80 128 0.0 0.0 0.00 0.00 0.00 58 1012.4
20210619012914 80 128 0.0 0.0 0.00 0.00 0.00 56 1012.5
20210619011922 81 128 0.0 1.0 0.00 0.00 0.00 55 1012.2
20210619011407 82 128 0.0 1.0 0.00 0.00 0.00 53 1012.2
20210619010417 83 128 0.0 1.0 0.00 0.00 0.00 51 1012.2
20210619005422 84 128 0.0 1.0 0.00 0.00 0.00 50 1012.3
20210619004412 85 130 0.0 2.0 0.00 0.00 0.00 48 1012.2
20210619003913 85 130 0.0 2.0 0.00 0.00 0.00 46 1012.3
20210619002916 86 93 0.0 2.0 0.00 0.00 0.00 46 1012.1
20210619001918 86 92 0.0 5.0 0.00 0.00 0.00 45 1012.2
20210619000919 87 70 1.0 4.0 0.00 0.00 0.00 45 1012.3
20210618235927 88 61 0.0 4.0 0.00 0.00 0.00 43 1012.4
20210618235410 88 50 1.0 2.0 0.00 0.00 0.00 45 1012.4
20210618234906 88 188 0.0 2.0 0.00 0.00 0.00 44 1012.4
20210618233919 88 331 0.0 2.0 0.00 0.00 0.00 43 1012.3
20210618232918 88 19 0.0 4.0 0.00 0.00 0.00 42 1012.3
20210618231924 88 176 1.0 4.0 0.00 0.00 0.00 43 1012.2
20210618231408 88 83 0.0 4.0 0.00 0.00 0.00 45 1012.2
20210618230414 88 47 1.0 7.0 0.00 0.00 0.00 44 1012.2
20210618224908 89 171 0.0 3.0 0.00 0.00 0.00 48 1012.2
20210618223914 89 355 0.0 11.0 0.00 0.00 0.00 49 1012.2
20210618222919 89 59 1.0 4.0 0.00 0.00 0.00 45 1012.3
20210618222418 90 47 1.0 4.0 0.00 0.00 0.00 44 1012.3
20210618221423 90 333 1.0 3.0 0.00 0.00 0.00 47 1012.4
20210618220905 90 290 1.0 6.0 0.00 0.00 0.00 47 1012.3
20210618215911 90 128 1.0 5.0 0.00 0.00 0.00 46 1012.4
20210618214921 90 69 1.0 6.0 0.00 0.00 0.00 46 1012.5
20210618213924 90 90 1.0 4.0 0.00 0.00 0.00 44 1012.4
20210618213411 90 205 1.0 6.0 0.00 0.00 0.00 43 1012.6
20210618212912 90 60 1.0 4.0 0.00 0.00 0.00 45 1012.5
20210618212344 90 141 0.0 4.0 0.00 0.00 0.00 44 1012.3
20210618211322 90 206 0.0 4.0 0.00 0.00 0.00 46 1012.6
20210618210328 90 198 1.0 3.0 0.00 0.00 0.00 48 1012.6
20210618205343 90 157 0.0 3.0 0.00 0.00 0.00 46 1012.8
20210618204328 90 260 1.0 4.0 0.00 0.00 0.00 43 1012.9
20210618203339 90 123 0.0 4.0 0.00 0.00 0.00 45 1012.8
20210618202835 90 130 1.0 5.0 0.00 0.00 0.00 43 1012.8
20210618202332 90 331 2.0 7.0 0.00 0.00 0.00 44 1012.7
20210618201341 90 77 2.0 9.0 0.00 0.00 0.00 45 1013.0
20210618200825 90 151 1.0 4.0 0.00 0.00 0.00 45 1013.0
20210618195830 90 321 1.0 5.0 0.00 0.00 0.00 47 1012.9
20210618194342 89 213 1.0 7.0 0.00 0.00 0.00 46 1013.3
20210618193825 88 141 1.0 7.0 0.00 0.00 0.00 47 1013.4
20210618192838 88 79 1.0 7.0 0.00 0.00 0.00 45 1013.5
20210618191842 88 113 1.0 9.0 0.00 0.00 0.00 47 1013.5
20210618190823 89 223 2.0 7.0 0.00 0.00 0.00 43 1013.4
20210618185828 89 76 1.0 7.0 0.00 0.00 0.00 44 1013.5
20210618184837 90 136 1.0 5.0 0.00 0.00 0.00 45 1014.0
20210618183842 89 80 1.0 8.0 0.00 0.00 0.00 46 1014.0
20210618182837 88 292 0.0 4.0 0.00 0.00 0.00 48 1013.9
20210618181325 88 109 1.0 9.0 0.00 0.00 0.00 43 1014.0
20210618175841 88 29 0.0 4.0 0.00 0.00 0.00 43 1014.3
20210618174833 88 136 2.0 7.0 0.00 0.00 0.00 43 1014.3
20210618173843 88 69 1.0 7.0 0.00 0.00 0.00 45 1014.2
20210618173323 88 300 1.0 6.0 0.00 0.00 0.00 47 1014.3
20210618172820 88 339 1.0 6.0 0.00 0.00 0.00 45 1014.4
20210618171836 87 240 1.0 7.0 0.00 0.00 0.00 43 1014.6
20210618170835 87 80 1.0 5.0 0.00 0.00 0.00 44 1014.5
20210618165840 87 122 2.0 7.0 0.00 0.00 0.00 47 1014.5
20210618165327 87 66 2.0 7.0 0.00 0.00 0.00 45 1014.5
20210618164327 87 171 1.0 5.0 0.00 0.00 0.00 46 1014.5
20210618163341 86 26 0.0 4.0 0.00 0.00 0.00 48 1014.5
20210618162833 86 256 1.0 7.0 0.00 0.00 0.00 48 1014.6
20210618161843 85 69 1.0 6.0 0.00 0.00 0.00 45 1014.8
20210618160822 85 146 1.0 7.0 0.00 0.00 0.00 45 1014.7
20210618155833 85 90 1.0 4.0 0.00 0.00 0.00 49 1014.7
20210618154830 84 76 1.0 5.0 0.00 0.00 0.00 48 1014.6
20210618153840 84 204 2.0 6.0 0.00 0.00 0.00 51 1014.7
20210618153323 84 113 2.0 7.0 0.00 0.00 0.00 49 1014.7
20210618152330 83 119 0.0 4.0 0.00 0.00 0.00 55 1014.9
20210618151830 83 121 0.0 4.0 0.00 0.00 0.00 54 1014.8
20210618150832 82 70 1.0 5.0 0.00 0.00 0.00 57 1014.8
20210618145834 81 105 1.0 3.0 0.00 0.00 0.00 59 1014.8
20210618144841 80 76 0.0 6.0 0.00 0.00 0.00 59 1014.7
20210618144327 80 327 1.0 4.0 0.00 0.00 0.00 60 1014.8
20210618143332 79 89 0.0 3.0 0.00 0.00 0.00 62 1014.9
20210618142342 78 101 1.0 6.0 0.00 0.00 0.00 63 1014.8
20210618141828 78 120 1.0 6.0 0.00 0.00 0.00 66 1014.8
20210618140829 76 92 0.0 3.0 0.00 0.00 0.00 70 1014.8
20210618135835 76 103 0.0 1.0 0.00 0.00 0.00 73 1014.9
20210618134840 75 103 0.0 1.0 0.00 0.00 0.00 73 1014.9
20210618133839 75 103 0.0 0.0 0.00 0.00 0.00 74 1015.0
20210618132823 74 103 0.0 2.0 0.00 0.00 0.00 75 1015.0
20210618131828 74 103 0.0 0.0 0.00 0.00 0.00 75 1014.9
20210618130836 73 103 0.0 0.0 0.00 0.00 0.00 76 1014.8
20210618125838 73 103 0.0 0.0 0.00 0.00 0.00 76 1014.7
20210618125327 73 103 0.0 0.0 0.00 0.00 0.00 76 1014.7
20210618124823 72 103 0.0 1.0 0.00 0.00 0.00 76 1014.6
20210618123835 72 103 0.0 1.0 0.00 0.00 0.00 76 1014.8
20210618122832 71 103 0.0 1.0 0.00 0.00 0.00 76 1014.7
20210618121835 71 103 0.0 0.0 0.00 0.00 0.00 76 1014.7
20210618120833 71 103 0.0 0.0 0.00 0.00 0.00 76 1014.6
20210618115839 71 103 0.0 0.0 0.00 0.00 0.00 75 1014.5
20210618114840 71 103 0.0 0.0 0.00 0.00 0.00 75 1014.5
20210618113822 71 103 0.0 0.0 0.00 0.00 0.00 75 1014.6